Location: Natural Bridges National Monument
(37.6093°N, 109.9767°W)
Time: 06:52:55
(UTC-06:00)

Amateur Radio Satellites - All Passes

Search period start: 26 May 2017 06:22
Search period end: 27 May 2017 06:22
Location: Natural Bridges National Monument, 37.6093°N, 109.9767°W

Satellite Date Start Highest point End Downlink Frequencies (MHz)
Time Altitude Azimuth
O/OREOS (USA 219) 26 May 06:27:40 06:27:44 10° 307° (NW) 06:27:48 437.305
XW-2B 26 May 06:27:59 06:29:44 13° 92° (E) 06:31:30 145.730 - 145.750
DOVE 4 26 May 06:32:51 06:36:34 30° 98° (E) 06:40:22 437.250
XW-2F 26 May 06:40:12 06:42:51 18° 94° (E) 06:45:29 145.980 - 146.000
PCSat 26 May 06:40:18 06:44:23 22° 254° (WSW) 06:48:28 145.827
XW-2C 26 May 06:40:42 06:43:30 19° 94° (E) 06:46:17 145.795 - 145.815
NUDT-PHONESAT 26 May 06:41:23 06:43:28 14° 93° (E) 06:45:33 437.300
BEESAT 2 26 May 06:43:23 06:47:19 76° 119° (ESE) 06:51:21 435.950
KAITUO 1B 26 May 06:48:40 06:51:20 18° 94° (E) 06:53:59 145.475/437.950
JUGNU 26 May 06:49:43 06:52:11 13° 186° (S) 06:54:38 437.505
STARS 26 May 06:49:52 06:53:05 20° 265° (W) 06:56:18 437.465
SO-50 26 May 06:53:32 06:56:12 15° 45° (NE) 06:58:52 436.795
AO-7 26 May 07:00:53 07:06:45 22° 306° (NW) 07:12:39 .
BEESAT 3 26 May 07:05:48 07:08:58 23° 310° (NW) 07:12:12 437.485
RS-15 26 May 07:08:57 07:16:51 18° 348° (NNW) 07:24:43 29.354- 29.394
STRAND 1 26 May 07:13:01 07:17:26 31° 69° (ENE) 07:21:54 437.568
LilacSat-2 26 May 07:17:24 07:21:16 61° 101° (E) 07:25:04 437.200
HO-68 26 May 07:18:38 07:22:15 14° 90° (E) 07:25:51 435.675
SRMSAT 26 May 07:28:25 07:30:52 13° 174° (S) 07:33:19 437.500
M-CUBED/EXP-1 PRIME 26 May 07:36:45 07:38:35 13° 62° (ENE) 07:40:24 437.505
CUTE-I 26 May 07:38:57 07:44:18 75° 102° (ESE) 07:49:39 437.470
XW-2D 26 May 07:52:27 07:56:10 46° 286° (WNW) 07:59:50 145.860 - 145.880
SEEDS 26 May 07:57:01 07:58:56 13° 92° (E) 08:00:52 437.485
XW-2B 26 May 08:00:29 08:04:05 38° 287° (WNW) 08:07:38 145.730 - 145.750
DOVE 4 26 May 08:11:07 08:14:04 19° 291° (WNW) 08:17:04 437.250
XW-2F 26 May 08:13:42 08:16:58 27° 289° (WNW) 08:20:14 145.980 - 146.000
NUDT-PHONESAT 26 May 08:14:04 08:17:27 32° 287° (WNW) 08:20:50 437.300
XW-2C 26 May 08:14:27 08:17:39 25° 289° (WNW) 08:20:51 145.795 - 145.815
KAITUO 1B 26 May 08:22:08 08:25:18 26° 289° (WNW) 08:28:29 145.475/437.950
BEESAT 2 26 May 08:24:19 08:25:35 11° 316° (NW) 08:26:52 435.950
NO-84 26 May 08:32:23 08:36:19 32° 127° (SE) 08:40:12 435.350 FM
SO-50 26 May 08:32:36 08:37:04 65° 242° (WSW) 08:41:33 436.795
CUTE 1.7 + AOD 2 26 May 08:40:32 08:44:49 72° 102° (ESE) 08:49:02 437.475
XW-2A 26 May 08:50:52 08:54:20 88° 281° (W) 08:57:47 145.665 - 145.685
AO-73 26 May 08:51:19 08:53:27 13° 91° (E) 08:55:36 145.935
STRAND 1 26 May 08:52:15 08:56:33 28° 264° (W) 09:00:55 437.568
AAUSAT CUBESAT 2 26 May 08:56:35 09:00:13 29° 96° (E) 09:03:49 437.432
HO-68 26 May 09:03:30 09:10:45 88° 285° (WNW) 09:17:57 435.675
ZACube-1 26 May 09:03:56 09:07:22 21° 94° (E) 09:10:48 437.345
M-CUBED/EXP-1 PRIME 26 May 09:08:27 09:12:40 54° 254° (WSW) 09:16:38 437.505
CUBEBUG 2 26 May 09:13:39 09:18:16 81° 103° (ESE) 09:22:59 437.445
SRMSAT 26 May 09:16:35 09:19:11 13° 185° (S) 09:21:47 437.500
CUTE-I 26 May 09:21:09 09:23:40 14° 299° (WNW) 09:26:11 437.470
UWE-3 26 May 09:24:55 09:29:30 64° 101° (E) 09:34:07 435.000/436.395/437.385
RS-15 26 May 09:26:46 09:36:00 23° 25° (NNE) 09:44:56 29.354- 29.394
SEEDS 26 May 09:30:49 09:34:50 45° 287° (WNW) 09:38:50 437.485
FO-29 26 May 09:38:42 09:42:42 23° 65° (ENE) 09:46:45 435.910
TIGRISAT 26 May 09:52:18 09:55:44 24° 69° (ENE) 09:59:12 435.000
Oscar 11 26 May 09:59:23 10:03:41 60° 100° (E) 10:07:58 .
NO-84 26 May 10:09:53 10:13:54 35° 322° (NW) 10:17:49 435.350 FM
UNISAT 6 26 May 10:23:01 10:27:12 60° 75° (ENE) 10:31:28 437.425
AO-73 26 May 10:25:30 10:29:57 53° 286° (WNW) 10:34:23 145.935
AAUSAT CUBESAT 2 26 May 10:32:28 10:35:27 20° 292° (WNW) 10:38:26 437.432
PRISM 26 May 10:37:06 10:41:12 65° 259° (W) 10:45:18 437.425
ZACube-1 26 May 10:39:33 10:43:40 34° 289° (WNW) 10:47:48 437.345
HO-68 26 May 10:53:21 10:57:28 16° 304° (NW) 11:01:34 435.675
DELFI C3 26 May 10:53:33 10:57:28 67° 101° (E) 11:01:20 145.870
EO-88 26 May 11:01:56 11:05:35 60° 101° (E) 11:09:12 145.990 - 145.960
UWE-3 26 May 11:03:30 11:05:23 12° 295° (WNW) 11:07:17 435.000/436.395/437.385
FO-29 26 May 11:22:50 11:27:35 36° 262° (W) 11:32:25 435.910
TIGRISAT 26 May 11:28:47 11:32:18 25° 265° (W) 11:35:53 435.000
Oscar 11 26 May 11:37:46 11:39:16 12° 296° (WNW) 11:40:46 .
RS-15 26 May 11:39:29 11:51:38 64° 54° (NE) 12:03:07 29.354- 29.394
NANOSAT C BR1 26 May 11:41:57 11:45:22 25° 70° (ENE) 11:48:47 145.865
YUBILEINY 26 May 11:44:42 11:51:24 23° 68° (ENE) 11:58:04 435.215
POLYITAN 1 26 May 11:45:55 11:49:35 30° 71° (ENE) 11:53:16 437.675
LO-87 26 May 11:46:37 11:49:33 24° 96° (E) 11:52:29 145.935 - 145.965
ESTCUBE 1 26 May 11:48:39 11:51:27 16° 93° (E) 11:54:14 437.505/2401.250
DUCHIFAT 1 26 May 11:52:36 11:56:12 29° 70° (ENE) 11:59:49 145.980
QB50P2 26 May 11:54:15 11:58:11 42° 73° (ENE) 12:02:10 145.880/145.840
BUGSAT 1 26 May 12:13:28 12:15:39 14° 66° (ENE) 12:17:51 437.445
AIST 2D 26 May 12:16:26 12:19:49 45° 261° (W) 12:23:14 435.315
EO-79 26 May 12:31:14 12:35:24 76° 257° (WSW) 12:39:37 145.935-145.965
SPROUT 26 May 12:41:57 12:44:26 15° 93° (E) 12:46:54 437.525
VELOX 1 26 May 12:45:37 12:48:23 16° 94° (E) 12:51:07 145.980
Oscar 19 26 May 12:46:25 12:49:33 16° 63° (ENE) 12:52:41 437.125/150
NANOSAT C BR1 26 May 13:17:37 13:20:59 23° 264° (W) 13:24:22 145.865
O/OREOS (USA 219) 26 May 13:18:12 13:19:45 11° 54° (NE) 13:21:17 437.305
LO-87 26 May 13:20:25 13:22:48 17° 291° (WNW) 13:25:12 145.935 - 145.965
DX 1 26 May 13:22:22 13:24:37 14° 93° (E) 13:26:50 434.975-435.025
POLYITAN 1 26 May 13:22:22 13:25:23 19° 266° (W) 13:28:25 437.675
ESTCUBE 1 26 May 13:24:10 13:28:25 42° 288° (WNW) 13:32:38 437.505/2401.250
DUCHIFAT 1 26 May 13:28:48 13:31:51 20° 265° (W) 13:34:56 145.980
QB50P2 26 May 13:31:56 13:34:09 14° 268° (W) 13:36:23 145.880/145.840
YUBILEINY 26 May 13:40:11 13:48:58 71° 267° (W) 13:57:43 435.215
BUGSAT 1 26 May 13:46:55 13:50:40 38° 261° (W) 13:54:26 437.445
BEESAT 3 26 May 13:47:39 13:49:12 12° 44° (NE) 13:50:45 437.485
RS-15 26 May 13:52:57 14:03:18 36° 255° (WSW) 14:13:14 29.354- 29.394
Gurwin Techsat 1B 26 May 13:59:30 14:04:34 48° 72° (ENE) 14:09:40 435.225
AO-85 26 May 14:10:05 14:14:05 58° 58° (ENE) 14:18:19 145.980
AO-7 26 May 14:14:07 14:19:42 20° 54° (NE) 14:25:17 .
SPROUT 26 May 14:16:28 14:20:29 40° 287° (WNW) 14:24:29 437.525
VELOX 1 26 May 14:20:52 14:24:57 39° 288° (WNW) 14:29:01 145.980
Oscar 19 26 May 14:23:13 14:28:20 59° 259° (W) 14:33:29 437.125/150
50 SAT 26 May 14:34:49 14:37:59 36° 286° (WNW) 14:41:06 437.505
UKube-1 26 May 14:49:18 14:53:37 83° 287° (WNW) 14:57:54 .
O/OREOS (USA 219) 26 May 14:55:11 14:59:40 70° 252° (WSW) 15:04:06 437.305
DX 1 26 May 14:56:52 15:01:00 45° 287° (WNW) 15:05:06 434.975-435.025
BEESAT 2 26 May 15:03:08 15:06:31 25° 51° (NE) 15:09:52 435.950
NO-84 26 May 15:09:21 15:11:10 13° 24° (NNE) 15:12:56 435.350 FM
ITUPSAT 1 26 May 15:22:48 15:26:02 18° 94° (E) 15:29:14 437.325
BEESAT 3 26 May 15:23:15 15:27:15 70° 242° (WSW) 15:31:10 437.485
ITAMSAT 1 26 May 15:24:45 15:29:35 43° 71° (ENE) 15:34:27 435.822/435.867
MOZHAYETS 4 26 May 15:40:00 15:42:39 15° 92° (E) 15:45:15
Gurwin Techsat 1B 26 May 15:41:03 15:44:44 19° 267° (W) 15:48:26 435.225
YUBILEINY 26 May 15:42:00 15:44:02 11° 286° (WNW) 15:46:04 435.215
AO-85 26 May 15:52:48 15:54:03 11° 251° (WSW) 15:55:18 145.980
BEESAT 26 May 15:55:23 15:59:55 40° 99° (E) 16:04:24 436.000
AO-7 26 May 16:03:06 16:11:24 88° 252° (WSW) 16:19:46 .
BEESAT 2 26 May 16:40:48 16:44:13 26° 247° (WSW) 16:47:36 435.950
NO-84 26 May 16:45:43 16:49:24 74° 44° (NE) 16:52:44 435.350 FM
ITUPSAT 1 26 May 16:59:28 17:04:01 44° 288° (WNW) 17:08:34 437.325
ITAMSAT 1 26 May 17:05:24 17:09:11 21° 266° (W) 17:13:01 435.822/435.867
MOZHAYETS 4 26 May 17:15:33 17:20:01 48° 287° (WNW) 17:24:28
CUTE-I 26 May 17:22:49 17:24:52 12° 60° (ENE) 17:26:55 437.470
BEESAT 26 May 17:33:55 17:37:22 20° 294° (WNW) 17:40:49 436.000
DOVE 4 26 May 17:36:29 17:40:22 27° 71° (ENE) 17:44:05 437.250
LilacSat-2 26 May 17:57:47 18:00:48 22° 70° (ENE) 18:03:50 437.200
AO-7 26 May 18:00:41 18:05:07 15° 269° (W) 18:09:37 .
CUBESAT XI-V 26 May 18:01:17 18:05:58 89° 124° (SE) 18:10:34 437.345
KKS-1 26 May 18:08:37 18:13:04 89° 103° (ESE) 18:17:30 437.445
XW-2D 26 May 18:31:14 18:34:58 58° 75° (ENE) 18:38:45 145.860 - 145.880
XW-2B 26 May 18:39:08 18:42:54 72° 77° (ENE) 18:46:44 145.730 - 145.750
STARS 26 May 18:39:28 18:43:52 82° 105° (ESE) 18:48:15 437.465
NUDT-PHONESAT 26 May 18:50:39 18:54:21 78° 76° (ENE) 18:58:06 437.300
XW-2F 26 May 18:51:42 18:55:29 79° 258° (WSW) 18:59:19 145.980 - 146.000
XW-2C 26 May 18:52:48 18:56:35 73° 259° (W) 19:00:25 145.795 - 145.815
CUTE-I 26 May 18:58:52 19:04:10 82° 257° (WSW) 19:09:30 437.470
KAITUO 1B 26 May 18:59:12 19:02:57 78° 257° (WSW) 19:06:45 145.475/437.950
DOVE 4 26 May 19:14:09 19:17:59 25° 264° (W) 19:21:40 437.250
Tancredo 1 26 May 19:20:37 19:21:17 11° 128° (SE) 19:21:57 437.200
XW-2A 26 May 19:20:54 19:23:24 20° 71° (ENE) 19:25:57 145.665 - 145.685
STRAND 1 26 May 19:27:15 19:29:06 12° 91° (E) 19:30:57 437.568
HO-68 26 May 19:29:34 19:36:32 57° 69° (ENE) 19:43:32 435.675
CUTE 1.7 + AOD 2 26 May 19:31:02 19:34:59 38° 73° (ENE) 19:38:58 437.475
LilacSat-2 26 May 19:31:58 19:34:58 22° 265° (W) 19:38:00 437.200
PCSat 26 May 19:35:29 19:40:49 63° 114° (ESE) 19:46:11 145.827
AAUSAT CUBESAT 2 26 May 19:45:35 19:48:11 16° 67° (ENE) 19:50:48 437.432
ISS 26 May 19:51:25 19:53:26 15° 129° (SE) 19:55:28 437.550
ZACube-1 26 May 19:59:31 20:01:13 12° 64° (ENE) 20:02:56 437.345
CUBEBUG 2 26 May 20:09:56 20:13:55 48° 74° (ENE) 20:18:01 437.445
SEEDS 26 May 20:19:45 20:24:00 89° 280° (W) 20:28:16 437.485
UWE-3 26 May 20:20:10 20:24:00 37° 72° (ENE) 20:27:56 435.000/436.395/437.385
Oscar 11 26 May 20:52:08 20:56:03 35° 72° (ENE) 21:00:02 .
Tancredo 1 26 May 20:53:37 20:56:39 59° 322° (NW) 20:59:42 437.200
XW-2A 26 May 20:53:45 20:56:04 17° 265° (W) 20:58:25 145.665 - 145.685
STRAND 1 26 May 21:03:36 21:08:44 71° 286° (WNW) 21:13:52 437.568
CUTE 1.7 + AOD 2 26 May 21:08:16 21:10:56 16° 267° (W) 21:13:37 437.475
AO-73 26 May 21:18:37 21:22:48 89° 239° (WSW) 21:27:08 145.935
HO-68 26 May 21:18:53 21:24:33 25° 266° (W) 21:30:16 435.675
AAUSAT CUBESAT 2 26 May 21:19:26 21:23:19 37° 262° (W) 21:27:13 437.432
PCSat 26 May 21:20:49 21:24:38 19° 312° (NW) 21:28:30 145.827
ISS 26 May 21:26:27 21:29:39 47° 324° (NW) 21:32:51 437.550
ZACube-1 26 May 21:32:53 21:36:58 53° 261° (W) 21:41:11 437.345
DELFI C3 26 May 21:37:04 21:40:31 28° 71° (ENE) 21:43:57 145.870
EO-88 26 May 21:38:29 21:41:08 19° 69° (ENE) 21:43:47 145.990 - 145.960
CUBEBUG 2 26 May 21:49:24 21:50:51 12° 269° (W) 21:52:19 437.445
UWE-3 26 May 21:58:04 22:00:36 16° 268° (W) 22:03:10 435.000/436.395/437.385
UNISAT 6 26 May 22:17:27 22:20:15 16° 93° (E) 22:23:02 437.425
PRISM 26 May 22:21:07 22:23:58 18° 95° (E) 22:26:48 437.425
M-CUBED/EXP-1 PRIME 26 May 22:23:20 22:26:31 46° 290° (WNW) 22:29:38 437.505
Oscar 11 26 May 22:29:19 22:32:16 18° 267° (W) 22:35:15 .
FO-29 26 May 22:31:31 22:37:21 31° 97° (E) 22:43:43 435.910
Tancredo 1 26 May 22:31:55 22:32:57 11° 340° (NNW) 22:33:58 437.200
SO-50 26 May 22:44:36 22:49:08 63° 118° (ESE) 22:53:38 436.795
ESTCUBE 1 26 May 22:47:19 22:49:20 13° 64° (ENE) 22:51:21 437.505/2401.250
ISS 26 May 23:05:44 23:06:48 11° 342° (NNW) 23:07:52 437.550
EO-88 26 May 23:11:42 23:14:38 23° 264° (W) 23:17:37 145.990 - 145.960
DELFI C3 26 May 23:12:27 23:15:16 19° 266° (W) 23:18:07 145.870
TIGRISAT 26 May 23:20:42 23:25:19 73° 101° (E) 23:30:00 435.000
VELOX 1 26 May 23:42:08 23:43:59 12° 64° (ENE) 23:45:49 145.980
AIST 2D 26 May 23:44:29 23:46:26 14° 93° (E) 23:48:22 435.315
UNISAT 6 26 May 23:52:42 23:57:07 46° 287° (WNW) 00:01:35 437.425
LO-87 26 May 23:53:17 23:56:46 58° 259° (W) 00:00:16 145.935 - 145.965
PRISM 26 May 23:55:43 23:59:16 30° 289° (WNW) 00:02:48 437.425
FO-29 27 May 00:16:15 00:22:22 45° 289° (WNW) 00:29:11 435.910
DX 1 27 May 00:18:00 00:18:37 10° 63° (ENE) 00:19:16 434.975-435.025
EO-79 27 May 00:18:26 00:21:34 20° 95° (E) 00:24:41 145.935-145.965
ESTCUBE 1 27 May 00:21:07 00:25:36 59° 259° (W) 00:30:06 437.505/2401.250
SO-50 27 May 00:27:11 00:30:00 16° 315° (NW) 00:32:47 436.795
YUBILEINY 27 May 00:43:47 00:50:45 28° 83° (E) 00:57:44 435.215
TIGRISAT 27 May 01:00:07 01:01:23 11° 297° (WNW) 01:02:40 435.000
NANOSAT C BR1 27 May 01:02:36 01:06:48 60° 101° (E) 01:10:59 145.865
50 SAT 27 May 01:04:41 01:08:01 49° 75° (ENE) 01:11:23 437.505
SPROUT 27 May 01:07:14 01:11:27 71° 259° (W) 01:15:41 437.525
POLYITAN 1 27 May 01:07:25 01:11:42 77° 102° (ESE) 01:15:59 437.675
DUCHIFAT 1 27 May 01:13:06 01:17:20 71° 101° (ESE) 01:21:34 145.980
VELOX 1 27 May 01:15:33 01:19:55 58° 259° (W) 01:24:16 145.980
QB50P2 27 May 01:16:08 01:20:24 77° 285° (WNW) 01:24:40 145.880/145.840
AIST 2D 27 May 01:16:33 01:19:40 29° 288° (WNW) 01:22:46 435.315
BUGSAT 1 27 May 01:30:09 01:33:51 31° 97° (E) 01:37:34 437.445
UKube-1 27 May 01:41:27 01:45:42 63° 74° (ENE) 01:49:58 .
Tancredo 1 27 May 01:45:45 01:46:55 12° 21° (NNE) 01:48:05 437.200
DX 1 27 May 01:49:52 01:54:12 69° 258° (WSW) 01:58:32 434.975-435.025
EO-79 27 May 01:53:34 01:57:20 31° 289° (WNW) 02:01:04 145.935-145.965
RS-15 27 May 01:59:17 02:10:33 49° 109° (ESE) 02:22:07 29.354- 29.394
Gurwin Techsat 1B 27 May 02:18:16 02:22:22 22° 94° (E) 02:26:25 435.225
ISS 27 May 02:20:16 02:22:17 15° 23° (NNE) 02:24:19 437.550
ITUPSAT 1 27 May 02:28:03 02:31:11 18° 65° (ENE) 02:34:19 437.325
Oscar 19 27 May 02:36:40 02:41:45 57° 101° (E) 02:46:47 437.125/150
YUBILEINY 27 May 02:38:23 02:46:54 58° 281° (W) 02:55:33 435.215
NANOSAT C BR1 27 May 02:40:42 02:41:58 11° 296° (WNW) 02:43:15 145.865
MOZHAYETS 4 27 May 02:41:08 02:42:57 12° 63° (ENE) 02:44:45
BEESAT 27 May 02:59:50 03:04:11 37° 71° (ENE) 03:08:35 436.000
BUGSAT 1 27 May 03:06:01 03:08:59 19° 292° (WNW) 03:11:58 437.445
Tancredo 1 27 May 03:20:08 03:23:11 64° 38° (NE) 03:26:13 437.200
O/OREOS (USA 219) 27 May 03:27:49 03:30:47 17° 100° (E) 03:33:45 437.305
ITAMSAT 1 27 May 03:40:27 03:43:51 17° 93° (E) 03:47:14 435.822/435.867
ISS 27 May 03:55:53 03:59:10 86° 223° (SW) 04:02:26 437.550
Gurwin Techsat 1B 27 May 03:57:26 04:02:26 42° 289° (WNW) 04:07:23 435.225
ITUPSAT 1 27 May 04:04:02 04:08:36 46° 260° (W) 04:13:13 437.325
AO-7 27 May 04:07:19 04:14:49 35° 98° (E) 04:22:16 .
RS-15 27 May 04:11:17 04:23:00 52° 311° (NW) 04:35:02 29.354- 29.394
MOZHAYETS 4 27 May 04:14:57 04:19:30 64° 260° (W) 04:24:07
Oscar 19 27 May 04:17:23 04:20:34 17° 297° (WNW) 04:23:43 437.125/150
AO-85 27 May 04:23:12 04:26:51 28° 114° (ESE) 04:30:22 145.980
PCSat 27 May 04:25:27 04:30:22 34° 55° (NE) 04:35:16 145.827
BEESAT 27 May 04:38:33 04:42:03 20° 266° (W) 04:45:34 436.000
JUGNU 27 May 04:46:10 04:48:51 13° 176° (S) 04:51:32 437.505
CUBESAT XI-V 27 May 05:02:09 05:06:49 69° 75° (ENE) 05:11:31 437.345
KKS-1 27 May 05:04:25 05:08:47 63° 75° (ENE) 05:13:10 437.445
O/OREOS (USA 219) 27 May 05:05:28 05:09:49 41° 295° (WNW) 05:14:10 437.305
BEESAT 3 27 May 05:11:17 05:14:41 28° 113° (ESE) 05:18:08 437.485
ITAMSAT 1 27 May 05:18:31 05:23:33 51° 288° (WNW) 05:28:36 435.822/435.867
STARS 27 May 05:33:53 05:38:07 55° 73° (ENE) 05:42:23 437.465
AO-7 27 May 05:59:46 06:07:40 49° 295° (WNW) 06:15:36 .
AO-85 27 May 06:03:52 06:07:12 23° 309° (NW) 06:10:27 145.980
PCSat 27 May 06:08:57 06:13:40 31° 251° (WSW) 06:18:22 145.827
